TimeMST,TemperatureF,Dew PointF,Humidity,Sea Level PressureIn,VisibilityMPH,Wind Direction,Wind SpeedMPH,Gust SpeedMPH,PrecipitationIn,Events,Conditions,WindDirDegrees,DateUTC
12:53 AM,28.9,12.9,51,29.92,10.0,SW,6.9,-,N/A,,Clear,230,2013-03-07 07:53:00
1:53 AM,28.9,14.0,54,29.92,10.0,Calm,Calm,-,N/A,,Clear,0,2013-03-07 08:53:00
2:53 AM,25.0,12.9,60,29.93,10.0,Calm,Calm,-,N/A,,Clear,0,2013-03-07 09:53:00
3:53 AM,24.1,14.0,65,29.92,10.0,Calm,Calm,-,N/A,,Clear,0,2013-03-07 10:53:00
4:53 AM,21.0,12.9,71,29.95,10.0,Calm,Calm,-,N/A,,Clear,0,2013-03-07 11:53:00
5:53 AM,18.0,10.9,74,29.99,10.0,Calm,Calm,-,N/A,,Clear,0,2013-03-07 12:53:00
6:53 AM,19.0,12.0,74,30.04,10.0,Calm,Calm,-,N/A,,Clear,0,2013-03-07 13:53:00
7:53 AM,28.0,16.0,61,30.03,10.0,Calm,Calm,-,N/A,,Clear,0,2013-03-07 14:53:00
8:53 AM,39.9,18.0,41,30.00,10.0,Calm,Calm,-,N/A,,Clear,0,2013-03-07 15:53:00
9:53 AM,48.9,19.0,31,29.97,10.0,West,3.5,-,N/A,,Clear,280,2013-03-07 16:53:00
10:53 AM,54.0,19.0,25,29.93,10.0,SW,12.7,23.0,N/A,,Clear,220,2013-03-07 17:53:00
11:53 AM,55.9,16.0,21,29.91,10.0,SW,11.5,19.6,N/A,,Clear,220,2013-03-07 18:53:00
12:53 PM,57.9,12.0,16,29.89,10.0,SW,13.8,21.9,N/A,,Clear,230,2013-03-07 19:53:00
1:53 PM,59.0,9.0,14,29.86,10.0,SSW,17.3,21.9,N/A,,Clear,210,2013-03-07 20:53:00
2:53 PM,60.1,9.0,13,29.85,10.0,SW,13.8,24.2,N/A,,Clear,220,2013-03-07 21:53:00
3:53 PM,59.0,3.0,11,29.84,10.0,SSW,18.4,32.2,N/A,,Clear,210,2013-03-07 22:53:00
4:53 PM,57.9,7.0,13,29.86,10.0,SW,13.8,21.9,N/A,,Clear,220,2013-03-07 23:53:00
5:53 PM,54.0,6.1,15,29.89,10.0,WSW,16.1,-,N/A,,Clear,240,2013-03-08 00:53:00
6:53 PM,46.9,6.1,19,29.94,10.0,SSW,3.5,-,N/A,,Clear,200,2013-03-08 01:53:00
7:53 PM,48.0,8.1,20,29.90,10.0,WSW,13.8,-,N/A,,Clear,240,2013-03-08 02:53:00
8:53 PM,46.0,7.0,20,29.88,10.0,WSW,10.4,18.4,N/A,,Clear,250,2013-03-08 03:53:00
9:53 PM,39.0,8.1,28,29.88,10.0,Calm,Calm,-,N/A,,Clear,0,2013-03-08 04:53:00
11:53 PM,42.1,12.0,29,29.83,10.0,Variable,5.8,-,N/A,,Clear,0,2013-03-08 06:53:00